QPF
0.00 0.00 0.00 0.00 0.00 0.00 0.01 0.01 0.00 0.00 0.00 0.00 0.00 0.00 0.00 0.00 0.00 0.08 0.01 0.00 0.00 0.00 0.00 0.00 0.00 0.00 0.00 0.00 0.00 0.00 0.00 0.00 0.00 0.00 0.00 0.00 0.00 0.00 0.00 0.00 0.00 0.00 0.00 0.00 0.00 0.00 0.00 0.00 0.00
0.00 0.00 0.00 0.00 0.00 0.00 0.00 0.00 0.00 0.00 0.00 0.00 0.00 0.00 0.00 0.00 0.00 0.00 0.00 0.00 0.00 0.00 0.00 0.00 0.00 0.00 0.00 0.00 0.00 0.00 0.00 0.00 0.00 0.00 0.00 0.00 0.00 0.00 0.00 0.00 0.00 0.00 0.00 0.00 0.00 0.00 0.00 0.00 0.00
0.00 0.00 0.00 0.00 0.00 0.00 0.00 0.00 0.00 0.00 0.00 0.00 0.00 0.00 0.00 0.00 0.00 0.00 0.00 0.00 0.00 0.00 0.00 0.00 0.00 0.00 0.00 0.00 0.00 0.00 0.00 0.00 0.00 0.00 0.00 0.00 0.00 0.00 0.00 0.00 0.00 0.00 0.00 0.00 0.00 0.00 0.00 0.00 0.00
0.00 0.00 0.00 0.00 0.00 0.00 0.00 0.00 0.00 0.00 0.00 0.00 0.00 0.00 0.00 0.00 0.00 0.00 0.00 0.00 0.00 0.00 0.00 0.00 0.00 0.00 0.00 0.00 0.00 0.00 0.00 0.00 0.00 0.00 0.00 0.00 0.00 0.00 0.00 0.00 0.00 0.00 0.00 0.00 0.00 0.00 0.00 0.00 0.00
0.00 0.00 0.00 0.00 0.00 0.00 0.00 0.00 0.00 0.00 0.00 0.00 0.00 0.00 0.00 0.00 0.00 0.00 0.00 0.00 0.00 0.00 0.00 0.00 0.00 0.00 0.00 0.00 0.00 0.00 0.00 0.00 0.00 0.00 0.00 0.00 0.00 0.00 0.00 0.00 0.00 0.00 0.00 0.00 0.00 0.00 0.00 0.00 0.00
0.00 0.00 0.00 0.00 0.00 0.00 0.00 0.00 0.00 0.00 0.00 0.01 0.03 0.03 0.01 0.00 0.00 0.00 0.00 0.00 0.00 0.00 0.00 0.00 0.00 0.00 0.00 0.00 0.00 0.00 0.00 0.00 0.00 0.00 0.00 0.00 0.00 0.00 0.00 0.00 0.00 0.00 0.00 0.00 0.00 0.00 0.00 0.00 0.00
0.00 0.00 0.00 0.00 0.00 0.00 0.00 0.00 0.00 0.00 0.00 0.01 0.03 0.06 0.08 0.11 0.01 0.00 0.00 0.00 0.00 0.00 0.00 0.00 0.00 0.00 0.00 0.00 0.00 0.00 0.00 0.00 0.00 0.00 0.00 0.00 0.00 0.00 0.00 0.00 0.00 0.00 0.00 0.00 0.00 0.00 0.00 0.00 0.00
0.00 0.00 0.00 0.00 0.00 0.00 0.00 0.00 0.00 0.00 0.00 0.01 0.01 0.03 0.09 0.09 0.01 0.00 0.00 0.00 0.00 0.00 0.00 0.00 0.00 0.00 0.00 0.00 0.00 0.00 0.00 0.00 0.00 0.00 0.00 0.00 0.00 0.00 0.00 0.00 0.00 0.00 0.00 0.00 0.00 0.00 0.00 0.00 0.00
0.00 0.00 0.00 0.00 0.00 0.00 0.00 0.00 0.00 0.00 0.00 0.00 0.02 0.09 0.12 0.05 0.02 0.00 0.00 0.00 0.00 0.01 0.01 0.00 0.00 0.00 0.00 0.00 0.00 0.00 0.00 0.00 0.00 0.00 0.00 0.00 0.00 0.00 0.00 0.00 0.00 0.00 0.00 0.00 0.00 0.00 0.00 0.00 0.00
0.00 0.00 0.00 0.00 0.00 0.00 0.00 0.00 0.00 0.00 0.00 0.01 0.03 0.01 0.11 0.15 0.04 0.00 0.00 0.01 0.00 0.00 0.02 0.01 0.00 0.00 0.00 0.00 0.00 0.00 0.00 0.00 0.00 0.00 0.00 0.00 0.00 0.00 0.00 0.00 0.00 0.00 0.00 0.00 0.00 0.00 0.00 0.00 0.00
0.00 0.00 0.00 0.00 0.00 0.00 0.00 0.00 0.00 0.00 0.00 0.00 0.00 0.00 0.01 0.08 0.23 0.17 0.17 0.13 0.06 0.03 0.01 0.01 0.00 0.00 0.01 0.00 0.00 0.00 0.01 0.01 0.00 0.00 0.00 0.00 0.00 0.00 0.00 0.00 0.00 0.00 0.00 0.00 0.00 0.00 0.00 0.01 0.02
0.00 0.00 0.00 0.00 0.00 0.00 0.00 0.00 0.00 0.00 0.00 0.00 0.00 0.00 0.00 0.00 0.03 0.06 0.04 0.04 0.02 0.08 0.10 0.07 0.02 0.01 0.00 0.00 0.00 0.01 0.03 0.08 0.03 0.00 0.00 0.00 0.00 0.00 0.00 0.00 0.00 0.00 0.00 0.00 0.01 0.05 0.13 0.16 0.15
0.00 0.00 0.00 0.00 0.00 0.00 0.00 0.00 0.00 0.00 0.00 0.00 0.00 0.00 0.00 0.00 0.00 0.00 0.00 0.00 0.00 0.02 0.09 0.12 0.06 0.02 0.00 0.00 0.00 0.00 0.02 0.04 0.03 0.00 0.00 0.00 0.00 0.00 0.00 0.00 0.00 0.00 0.00 0.01 0.06 0.10 0.12 0.12 0.06
0.00 0.00 0.00 0.00 0.00 0.00 0.00 0.00 0.00 0.00 0.00 0.00 0.00 0.00 0.01 0.02 0.01 0.00 0.00 0.00 0.00 0.01 0.06 0.03 0.03 0.03 0.00 0.00 0.00 0.02 0.04 0.01 0.00 0.00 0.00 0.00 0.01 0.01 0.00 0.00 0.00 0.00 0.00 0.00 0.01 0.03 0.05 0.03 0.04
0.00 0.00 0.00 0.00 0.00 0.00 0.00 0.00 0.00 0.00 0.00 0.00 0.00 0.00 0.00 0.02 0.01 0.01 0.02 0.03 0.09 0.12 0.11 0.09 0.06 0.03 0.03 0.02 0.05 0.08 0.08 0.06 0.02 0.01 0.01 0.01 0.02 0.04 0.01 0.01 0.00 0.00 0.01 0.01 0.01 0.01 0.00 0.00 0.00
0.00 0.00 0.00 0.00 0.00 0.00 0.00 0.00 0.00 0.00 0.00 0.00 0.00 0.00 0.00 0.00 0.00 0.00 0.02 0.06 0.10 0.12 0.15 0.13 0.06 0.02 0.01 0.07 0.08 0.06 0.11 0.21 0.29 0.12 0.04 0.18 0.16 0.08 0.03 0.00 0.01 0.02 0.01 0.01 0.01 0.01 0.00 0.00 0.00
0.00 0.00 0.00 0.00 0.00 0.00 0.00 0.00 0.00 0.00 0.00 0.00 0.02 0.01 0.00 0.00 0.00 0.00 0.00 0.01 0.02 0.03 0.05 0.04 0.03 0.02 0.05 0.16 0.16 0.15 0.31 0.48 0.34 0.19 0.19 0.21 0.09 0.06 0.01 0.00 0.00 0.00 0.00 0.00 0.00 0.00 0.00 0.00 0.00
0.00 0.00 0.00 0.00 0.00 0.00 0.00 0.00 0.00 0.00 0.00 0.00 0.05 0.01 0.00 0.00 0.00 0.00 0.00 0.00 0.01 0.01 0.01 0.01 0.00 0.00 0.00 0.02 0.02 0.16 0.21 0.19 0.28 0.26 0.09 0.02 0.02 0.03 0.02 0.01 0.01 0.00 0.00 0.00 0.00 0.00 0.00 0.00 0.00
0.00 0.00 0.00 0.00 0.00 0.00 0.00 0.00 0.00 0.00 0.00 0.00 0.01 0.00 0.00 0.00 0.00 0.00 0.00 0.00 0.00 0.02 0.01 0.01 0.01 0.00 0.00 0.00 0.02 0.02 0.09 0.15 0.24 0.14 0.07 0.06 0.02 0.00 0.00 0.00 0.00 0.00 0.00 0.00 0.00 0.00 0.00 0.00 0.00
0.00 0.00 0.00 0.00 0.00 0.00 0.00 0.00 0.00 0.00 0.00 0.00 0.00 0.00 0.00 0.00 0.00 0.00 0.00 0.00 0.01 0.01 0.02 0.02 0.01 0.01 0.00 0.00 0.00 0.00 0.01 0.03 0.08 0.06 0.02 0.03 0.00 0.00 0.00 0.00 0.00 0.00 0.00 0.00 0.00 0.00 0.00 0.00 0.00
0.00 0.00 0.00 0.00 0.00 0.00 0.00 0.00 0.00 0.00 0.00 0.00 0.00 0.00 0.00 0.00 0.00 0.00 0.00 0.00 0.00 0.01 0.02 0.02 0.01 0.01 0.00 0.00 0.00 0.00 0.00 0.00 0.00 0.00 0.00 0.00 0.00 0.00 0.00 0.00 0.00 0.00 0.00 0.00 0.03 0.01 0.01 0.00 0.00
0.00 0.00 0.00 0.00 0.00 0.00 0.00 0.00 0.00 0.00 0.00 0.00 0.00 0.00 0.00 0.00 0.00 0.00 0.00 0.00 0.00 0.00 0.00 0.00 0.00 0.00 0.00 0.00 0.00 0.00 0.00 0.00 0.00 0.00 0.00 0.00 0.00 0.00 0.00 0.00 0.00 0.00 0.00 0.01 0.02 0.04 0.06 0.04 0.02
0.00 0.00 0.00 0.00 0.00 0.00 0.00 0.00 0.01 0.01 0.00 0.00 0.00 0.00 0.00 0.00 0.00 0.00 0.00 0.00 0.00 0.00 0.00 0.00 0.00 0.00 0.00 0.00 0.00 0.00 0.00 0.00 0.00 0.00 0.00 0.00 0.00 0.00 0.00 0.00 0.00 0.00 0.00 0.00 0.01 0.02 0.04 0.07 0.09
0.00 0.00 0.00 0.00 0.00 0.00 0.00 0.00 0.02 0.00 0.00 0.00 0.00 0.00 0.00 0.00 0.00 0.00 0.00 0.00 0.00 0.00 0.00 0.00 0.00 0.00 0.00 0.00 0.00 0.00 0.00 0.00 0.00 0.00 0.00 0.00 0.00 0.00 0.00 0.00 0.00 0.00 0.00 0.00 0.00 0.01 0.01 0.03 0.04
0.00 0.00 0.00 0.00 0.00 0.00 0.00 0.00 0.01 0.00 0.01 0.01 0.00 0.00 0.00 0.00 0.00 0.00 0.00 0.00 0.00 0.00 0.00 0.00 0.00 0.00 0.00 0.00 0.00 0.00 0.00 0.00 0.00 0.00 0.00 0.00 0.00 0.00 0.00 0.00 0.00 0.00 0.00 0.00 0.00 0.00 0.00 0.01 0.02
0.00 0.00 0.00 0.00 0.00 0.00 0.00 0.00 0.00 0.00 0.00 0.00 0.00 0.00 0.00 0.00 0.00 0.00 0.01 0.01 0.00 0.00 0.00 0.00 0.00 0.00 0.00 0.00 0.00 0.00 0.00 0.00 0.00 0.00 0.00 0.00 0.00 0.00 0.00 0.00 0.00 0.00 0.00 0.00 0.00 0.00 0.00 0.01 0.03
0.00 0.00 0.00 0.00 0.00 0.00 0.00 0.00 0.00 0.00 0.00 0.00 0.00 0.00 0.00 0.00 0.00 0.01 0.02 0.01 0.00 0.00 0.00 0.00 0.00 0.00 0.00 0.00 0.00 0.00 0.00 0.00 0.00 0.00 0.00 0.00 0.00 0.00 0.00 0.00 0.00 0.00 0.00 0.00 0.00 0.00 0.00 0.01 0.03
0.00 0.00 0.00 0.00 0.00 0.00 0.00 0.00 0.00 0.00 0.00 0.00 0.00 0.00 0.00 0.00 0.00 0.00 0.00 0.00 0.00 0.00 0.00 0.00 0.00 0.00 0.00 0.00 0.00 0.00 0.00 0.00 0.00 0.00 0.00 0.00 0.00 0.00 0.00 0.00 0.00 0.00 0.01 0.01 0.00 0.00 0.00 0.01 0.04
0.00 0.00 0.00 0.00 0.00 0.00 0.00 0.00 0.00 0.00 0.00 0.00 0.00 0.00 0.00 0.00 0.00 0.00 0.00 0.00 0.00 0.00 0.00 0.00 0.00 0.00 0.00 0.00 0.00 0.00 0.00 0.00 0.00 0.00 0.00 0.00 0.01 0.00 0.00 0.01 0.00 0.01 0.01 0.01 0.01 0.01 0.01 0.04 0.07
0.00 0.00 0.00 0.00 0.00 0.00 0.00 0.00 0.00 0.00 0.00 0.00 0.00 0.00 0.00 0.00 0.00 0.00 0.00 0.00 0.00 0.00 0.00 0.00 0.00 0.00 0.00 0.00 0.00 0.00 0.00 0.00 0.00 0.00 0.00 0.00 0.01 0.01 0.01 0.01 0.00 0.00 0.00 0.00 0.01 0.01 0.01 0.03 0.03
MSLP
1008.54 1007.92 1007.41 1005.77 1005.47 1003.88 1005.83 1006.92 1004.73 1001.04 999.75 999.54 999.07 999.06 999.91 1000.87 1002.74 1005.53 1004.94 1004.48 1006.20 1007.22 1008.76 1009.42 1009.91 1010.11 1010.38 1010.80 1011.10 1011.33 1011.80 1012.25 1012.55 1012.86 1013.13 1013.40 1013.68 1013.90 1014.16 1014.38 1014.44 1014.45 1014.60 1014.69 1014.74 1014.79 1014.81 1014.84 1014.89
1007.87 1006.76 1005.70 1004.84 1003.87 1002.63 1003.26 1004.67 1004.87 1002.11 1000.09 999.92 999.62 999.58 1000.15 1001.15 1001.90 1004.04 1004.47 1005.11 1006.32 1007.64 1008.76 1009.79 1010.26 1010.55 1010.88 1011.25 1011.51 1011.63 1011.90 1012.29 1012.68 1013.05 1013.29 1013.50 1013.73 1013.99 1014.23 1014.31 1014.40 1014.56 1014.68 1014.81 1014.88 1014.90 1014.92 1014.97 1015.02
1007.90 1006.74 1005.28 1003.21 1001.95 1001.18 1002.43 1003.85 1004.53 1002.05 1000.37 999.93 999.90 1000.18 1000.53 1001.78 1002.10 1003.02 1004.07 1005.28 1006.61 1007.73 1008.75 1010.11 1010.59 1010.95 1011.24 1011.65 1011.95 1012.13 1012.35 1012.67 1012.89 1013.19 1013.53 1013.72 1013.85 1013.94 1014.21 1014.42 1014.43 1014.56 1014.74 1014.80 1014.93 1014.98 1015.05 1015.10 1015.12
1006.03 1004.67 1004.23 1002.78 1000.55 999.79 999.94 1000.41 1000.05 999.84 1000.06 1000.34 1000.39 1001.22 1002.04 1002.08 1002.67 1003.73 1004.47 1005.63 1006.77 1007.89 1009.18 1010.37 1010.78 1011.19 1011.58 1011.85 1012.20 1012.40 1012.61 1012.80 1013.22 1013.37 1013.55 1013.79 1014.07 1014.22 1014.24 1014.39 1014.59 1014.59 1014.69 1014.83 1014.91 1015.03 1015.13 1015.13 1015.17
1005.28 1004.55 1003.05 1001.26 999.79 999.03 998.90 999.41 999.91 1000.39 1001.63 1001.56 1002.05 1002.20 1002.85 1003.06 1003.81 1004.39 1005.36 1006.22 1006.92 1008.03 1009.63 1010.50 1011.04 1011.41 1011.75 1012.22 1012.48 1012.79 1012.99 1013.20 1013.28 1013.47 1013.63 1013.84 1014.01 1014.34 1014.46 1014.47 1014.56 1014.66 1014.72 1014.71 1014.86 1014.95 1015.06 1015.11 1015.07
1004.95 1003.84 1002.72 1000.71 999.75 1000.31 999.22 999.46 999.90 1001.74 1003.38 1004.43 1005.24 1005.67 1004.11 1003.35 1004.66 1005.57 1006.09 1006.41 1006.92 1008.26 1009.44 1010.53 1011.12 1011.45 1011.74 1012.17 1012.54 1012.82 1013.04 1013.29 1013.47 1013.59 1013.74 1013.91 1014.18 1014.34 1014.43 1014.45 1014.54 1014.59 1014.60 1014.69 1014.82 1014.89 1014.89 1014.91 1014.91
1004.82 1003.76 1002.40 1000.99 999.88 999.76 999.20 999.35 999.62 1001.56 1004.21 1007.07 1007.87 1008.01 1008.40 1006.32 1005.14 1005.30 1005.89 1006.59 1007.16 1008.30 1009.78 1010.65 1011.32 1011.90 1012.06 1012.33 1012.65 1012.83 1013.01 1013.09 1013.19 1013.43 1013.63 1013.84 1013.99 1014.21 1014.32 1014.44 1014.49 1014.58 1014.66 1014.68 1014.73 1014.75 1014.72 1014.64 1014.53
1004.58 1003.76 1002.64 1001.38 1000.00 999.01 999.26 999.65 999.56 1000.71 1003.83 1006.20 1005.75 1007.08 1010.38 1010.48 1006.61 1005.92 1006.24 1006.98 1007.41 1008.63 1009.52 1010.54 1011.51 1011.98 1012.26 1012.51 1012.58 1012.77 1012.95 1013.21 1013.09 1013.25 1013.31 1013.71 1013.76 1013.86 1013.91 1014.08 1014.20 1014.34 1014.45 1014.52 1014.47 1014.53 1014.43 1014.35 1014.24
1004.42 1003.64 1002.47 1001.15 999.78 999.13 999.58 999.80 999.66 1000.54 1003.40 1006.09 1005.51 1007.26 1009.26 1009.95 1010.64 1008.99 1010.09 1010.25 1010.39 1011.17 1009.28 1009.77 1010.82 1011.12 1011.33 1011.91 1012.51 1012.98 1013.25 1013.71 1013.69 1013.57 1013.33 1013.22 1013.27 1013.04 1013.44 1013.59 1013.51 1013.72 1013.78 1013.93 1014.06 1014.16 1014.23 1014.18 1013.97
1003.96 1003.07 1002.19 1001.00 999.87 999.60 1000.59 1000.34 1000.28 1001.71 1003.16 1003.94 1005.34 1008.17 1009.00 1011.33 1009.75 1011.26 1012.06 1012.78 1012.56 1012.27 1012.20 1011.01 1011.42 1011.20 1011.30 1011.50 1012.48 1012.54 1013.07 1013.39 1013.69 1013.66 1013.52 1012.95 1012.38 1012.39 1012.35 1012.52 1012.82 1013.24 1013.25 1013.23 1013.33 1013.51 1013.91 1014.19 1014.05
1003.16 1002.55 1001.90 1000.90 1000.35 1000.07 1000.35 1000.64 1000.54 1001.81 1003.37 1003.84 1004.18 1004.65 1007.32 1009.32 1010.74 1011.87 1012.68 1013.58 1014.27 1013.39 1012.21 1013.34 1012.79 1012.55 1012.26 1012.28 1012.33 1012.50 1012.87 1013.42 1013.37 1012.71 1013.30 1012.47 1011.86 1011.83 1011.94 1012.03 1012.61 1012.89 1012.93 1013.04 1013.02 1013.32 1013.89 1013.98 1013.87
1002.38 1002.06 1001.77 1001.25 1000.57 1000.82 1001.05 1001.37 1001.21 1001.48 1002.89 1003.94 1004.59 1005.31 1007.29 1009.14 1010.42 1011.34 1011.26 1012.09 1014.59 1014.69 1015.04 1015.50 1014.90 1014.22 1012.57 1012.29 1012.88 1012.96 1013.64 1014.28 1013.55 1012.46 1012.42 1012.18 1011.91 1011.71 1011.77 1011.51 1011.83 1012.42 1012.32 1012.46 1012.50 1012.94 1013.92 1014.90 1013.93
1001.87 1001.86 1001.51 1001.22 1001.14 1001.08 1001.69 1001.85 1001.82 1001.78 1002.23 1003.06 1003.93 1006.16 1008.33 1009.54 1010.62 1011.48 1012.08 1013.53 1014.02 1015.09 1015.84 1014.95 1014.58 1014.98 1013.28 1013.03 1012.01 1012.59 1012.98 1011.75 1011.05 1011.86 1011.84 1011.97 1011.61 1011.65 1011.89 1012.02 1011.95 1011.81 1011.70 1011.90 1012.51 1012.70 1013.21 1014.34 1014.16
1001.65 1001.79 1001.88 1001.44 1001.40 1001.53 1001.71 1002.16 1002.47 1002.68 1002.71 1004.10 1005.91 1008.00 1009.73 1011.24 1012.25 1013.03 1013.61 1014.61 1014.86 1014.64 1013.94 1013.70 1013.55 1013.65 1012.35 1012.82 1013.07 1012.95 1013.19 1012.43 1011.28 1010.56 1011.06 1011.85 1012.07 1012.13 1012.20 1012.21 1011.95 1011.86 1011.80 1011.85 1012.26 1012.62 1012.88 1013.30 1013.74
1002.31 1002.27 1002.17 1001.68 1001.68 1001.90 1002.04 1002.46 1002.90 1003.03 1003.68 1005.47 1007.40 1009.53 1010.82 1012.43 1013.31 1014.65 1015.39 1015.92 1016.16 1015.32 1014.86 1014.87 1014.37 1013.63 1013.14 1013.33 1013.78 1014.43 1014.87 1014.51 1011.70 1009.03 1010.19 1011.46 1011.82 1011.90 1012.13 1012.43 1012.08 1011.69 1011.67 1012.04 1012.01 1012.11 1012.16 1012.63 1013.08
1002.74 1002.40 1001.75 1001.07 1001.74 1002.15 1002.90 1003.10 1003.36 1003.92 1004.44 1006.31 1008.60 1010.70 1012.05 1013.14 1014.24 1014.97 1016.08 1016.21 1015.84 1015.50 1015.32 1015.01 1014.43 1014.16 1013.95 1014.10 1014.48 1014.33 1014.66 1014.99 1010.81 1009.13 1008.56 1011.63 1011.65 1011.72 1012.25 1012.46 1012.51 1012.45 1012.39 1012.17 1012.36 1012.20 1012.13 1012.37 1012.71
1002.06 1001.45 1000.86 1000.22 1001.49 1002.17 1002.97 1003.47 1004.55 1005.00 1005.34 1007.12 1009.56 1011.55 1013.09 1014.09 1014.53 1015.54 1016.12 1016.61 1016.42 1016.30 1016.04 1015.68 1015.61 1015.08 1015.01 1015.09 1014.44 1014.18 1013.83 1013.31 1016.04 1014.11 1012.36 1012.88 1011.90 1011.93 1012.78 1012.78 1012.38 1012.41 1012.57 1012.57 1012.47 1012.35 1012.48 1012.57 1012.82
1001.28 1000.92 1000.48 1000.75 1001.38 1002.39 1002.83 1004.12 1005.40 1006.28 1006.68 1008.41 1010.73 1012.28 1013.52 1014.42 1015.27 1015.89 1016.21 1017.08 1017.13 1017.06 1016.96 1016.70 1016.16 1015.95 1015.19 1015.16 1014.67 1014.61 1014.76 1015.34 1015.30 1014.66 1013.48 1013.28 1013.03 1013.39 1013.43 1012.86 1012.58 1012.44 1012.66 1012.60 1012.51 1012.35 1012.34 1012.46 1012.48
1002.08 1001.64 1000.95 1000.97 1001.88 1002.76 1003.74 1005.51 1007.08 1007.78 1007.63 1009.04 1010.98 1012.76 1013.99 1014.77 1015.80 1016.33 1017.07 1017.07 1017.34 1017.39 1017.52 1017.09 1017.00 1016.36 1015.64 1016.28 1015.80 1015.68 1015.41 1015.21 1015.52 1015.20 1015.05 1014.82 1014.19 1013.80 1013.78 1013.77 1013.29 1013.00 1012.84 1012.80 1012.65 1012.61 1012.65 1012.50 1012.41
1002.78 1002.41 1002.03 1001.71 1002.06 1003.20 1004.13 1005.80 1007.69 1008.77 1009.81 1010.26 1011.36 1012.77 1014.19 1015.13 1016.08 1016.74 1017.07 1017.34 1017.81 1017.69 1017.48 1017.30 1017.42 1016.83 1016.99 1017.22 1017.09 1016.34 1015.76 1015.42 1015.55 1015.58 1015.37 1015.48 1014.77 1014.57 1014.28 1014.34 1013.97 1013.51 1013.58 1013.23 1012.68 1012.82 1012.79 1012.61 1012.58
1002.91 1002.72 1002.39 1002.34 1002.26 1002.75 1004.25 1005.83 1007.68 1009.58 1010.83 1011.86 1012.93 1014.06 1014.84 1015.60 1016.09 1016.65 1017.24 1017.62 1018.12 1018.36 1018.64 1018.63 1018.66 1017.90 1017.77 1017.40 1017.11 1016.12 1015.56 1015.45 1015.93 1015.97 1015.73 1015.67 1015.43 1015.04 1014.52 1014.07 1013.71 1013.64 1013.66 1013.70 1013.28 1012.93 1012.95 1012.72 1012.45
1002.88 1002.56 1002.81 1003.04 1003.22 1003.21 1004.07 1004.98 1007.13 1009.46 1010.73 1011.97 1013.08 1013.97 1015.50 1015.90 1016.88 1017.03 1017.14 1017.38 1017.76 1018.27 1018.81 1018.98 1018.82 1018.80 1018.58 1018.15 1017.47 1017.14 1017.25 1017.25 1017.32 1016.91 1016.86 1016.68 1015.83 1015.41 1014.86 1014.69 1014.35 1014.43 1014.31 1014.31 1014.19 1013.88 1013.46 1013.37 1013.08
1003.45 1003.82 1003.89 1003.77 1003.68 1003.87 1004.13 1005.06 1008.02 1010.12 1010.15 1012.22 1013.27 1014.04 1015.35 1016.09 1016.64 1017.27 1017.28 1017.38 1017.52 1017.81 1017.96 1018.40 1018.62 1018.47 1018.60 1018.48 1018.64 1018.50 1018.36 1018.20 1017.92 1017.67 1017.57 1016.69 1016.44 1015.80 1015.13 1015.14 1015.26 1015.33 1014.83 1014.56 1014.35 1014.18 1013.91 1013.67 1013.33
1004.40 1004.62 1004.49 1004.34 1004.29 1004.16 1004.26 1005.17 1007.72 1009.17 1010.61 1012.06 1013.54 1014.10 1015.48 1016.08 1016.79 1017.26 1017.25 1017.38 1017.70 1018.02 1018.37 1018.64 1018.79 1018.92 1019.15 1019.17 1019.25 1019.04 1019.06 1019.06 1018.52 1018.15 1017.77 1017.73 1016.66 1016.45 1016.03 1016.49 1015.93 1016.02 1015.60 1015.01 1014.49 1014.20 1014.00 1013.88 1013.34
1004.58 1004.81 1004.54 1004.14 1003.91 1004.02 1004.35 1005.50 1007.13 1009.05 1010.72 1012.13 1012.99 1014.66 1015.82 1016.37 1017.02 1017.33 1017.60 1017.58 1017.88 1018.40 1018.74 1018.99 1019.42 1019.55 1019.50 1019.51 1019.38 1019.69 1019.54 1019.48 1019.16 1018.88 1019.10 1018.39 1017.95 1017.65 1017.21 1017.12 1016.67 1016.57 1015.86 1015.41 1014.75 1014.07 1014.05 1013.70 1013.37
1004.90 1004.92 1005.00 1004.87 1004.75 1004.64 1005.50 1006.64 1008.83 1010.02 1011.43 1012.33 1013.91 1015.47 1016.74 1016.84 1016.98 1017.38 1017.82 1018.01 1018.15 1018.64 1019.13 1019.63 1019.89 1019.95 1019.96 1019.97 1020.24 1020.35 1020.22 1020.18 1019.78 1019.75 1019.74 1019.53 1019.05 1018.49 1018.07 1017.23 1016.92 1016.48 1016.13 1015.40 1014.56 1014.49 1014.16 1013.57 1013.17
1005.45 1005.30 1005.59 1005.77 1006.03 1006.16 1006.18 1009.05 1010.61 1011.97 1013.23 1014.39 1015.53 1016.56 1016.87 1017.04 1016.99 1017.56 1017.79 1018.12 1018.59 1019.14 1019.56 1020.10 1020.38 1020.45 1020.37 1020.42 1020.51 1020.46 1020.42 1020.30 1020.23 1020.18 1019.92 1019.38 1018.54 1018.27 1017.51 1017.29 1017.22 1017.17 1015.90 1015.30 1014.92 1014.60 1014.27 1013.60 1013.22
1006.03 1006.20 1006.39 1006.35 1006.54 1006.59 1006.51 1008.61 1010.02 1011.47 1012.92 1014.05 1015.22 1015.96 1016.58 1016.74 1016.69 1016.81 1017.46 1018.27 1019.03 1019.78 1020.25 1020.78 1021.02 1020.95 1021.09 1021.25 1021.33 1021.25 1021.09 1020.89 1020.62 1020.20 1019.67 1019.17 1018.73 1018.39 1018.15 1017.84 1017.26 1016.51 1015.91 1015.44 1014.98 1014.40 1013.90 1013.45 1013.11
1006.20 1006.38 1006.81 1007.12 1007.50 1007.70 1007.98 1008.63 1009.30 1010.29 1011.53 1013.02 1013.88 1014.69 1015.51 1015.77 1016.27 1016.96 1017.59 1018.47 1019.46 1020.37 1020.95 1021.30 1021.55 1021.52 1021.67 1021.84 1021.68 1021.41 1021.13 1020.85 1020.58 1020.29 1019.97 1019.57 1019.08 1018.56 1018.10 1017.51 1016.99 1016.53 1016.11 1015.85 1015.16 1014.39 1013.98 1013.57 1013.25
1007.33 1007.42 1007.82 1008.23 1008.67 1008.61 1008.86 1009.55 1009.96 1010.24 1011.47 1012.38 1013.54 1014.69 1015.65 1016.45 1016.82 1017.48 1018.04 1019.07 1020.18 1021.23 1021.88 1022.11 1022.18 1022.18 1022.20 1022.02 1021.89 1021.67 1021.25 1020.98 1020.62 1020.38 1019.99 1019.50 1019.01 1018.44 1017.90 1017.39 1017.03 1016.70 1016.34 1016.05 1015.55 1015.03 1014.51 1014.15 1013.74
Thickness
5842 5848 5853 5852 5813 5825 5774 5766 5802 5843 5859 5876 5882 5870 5855 5854 5830 5792 5850 5869 5858 5851 5837 5832 5830 5829 5827 5824 5822 5820 5816 5812 5809 5806 5804 5801 5798 5796 5794 5790 5788 5788 5786 5785 5784 5784 5784 5783 5783
5846 5855 5857 5841 5812 5806 5816 5811 5787 5829 5868 5877 5878 5872 5857 5842 5865 5847 5850 5861 5856 5844 5835 5827 5825 5823 5821 5818 5816 5816 5814 5810 5807 5803 5800 5798 5796 5794 5791 5791 5789 5787 5785 5783 5781 5781 5781 5781 5780
5846 5853 5832 5831 5829 5819 5805 5807 5795 5834 5874 5873 5866 5878 5863 5844 5864 5862 5866 5861 5851 5841 5832 5822 5819 5816 5815 5811 5810 5809 5808 5805 5803 5800 5795 5794 5793 5792 5789 5787 5787 5785 5782 5781 5779 5778 5778 5777 5777
5847 5851 5843 5815 5829 5860 5858 5859 5870 5870 5873 5876 5871 5847 5861 5872 5859 5860 5862 5855 5845 5837 5826 5818 5814 5811 5808 5806 5804 5802 5801 5801 5797 5795 5793 5790 5788 5786 5786 5785 5783 5782 5781 5779 5778 5777 5776 5775 5775
5848 5835 5814 5825 5847 5875 5874 5876 5879 5862 5843 5854 5854 5838 5841 5856 5861 5857 5850 5846 5839 5833 5820 5814 5810 5807 5804 5800 5797 5795 5794 5792 5792 5791 5790 5787 5785 5781 5781 5781 5780 5778 5777 5777 5776 5775 5773 5772 5772
5816 5831 5802 5816 5843 5845 5869 5873 5874 5841 5833 5820 5817 5804 5820 5851 5843 5842 5844 5841 5841 5829 5820 5812 5808 5805 5802 5798 5794 5792 5790 5788 5786 5786 5784 5783 5779 5777 5776 5776 5775 5775 5775 5775 5773 5772 5771 5770 5769
5807 5807 5803 5824 5839 5839 5855 5875 5865 5842 5818 5792 5801 5783 5765 5794 5836 5847 5846 5842 5838 5828 5813 5805 5800 5797 5796 5793 5790 5789 5786 5785 5785 5782 5780 5777 5776 5773 5772 5771 5770 5771 5771 5771 5770 5770 5769 5769 5769
5818 5813 5802 5820 5830 5847 5865 5866 5875 5861 5816 5817 5826 5790 5726 5762 5803 5834 5832 5827 5826 5817 5809 5798 5790 5788 5787 5786 5787 5785 5783 5780 5781 5779 5777 5772 5771 5770 5770 5769 5768 5767 5767 5766 5768 5767 5767 5766 5766
5830 5794 5792 5814 5837 5850 5856 5851 5875 5873 5827 5804 5767 5793 5781 5776 5777 5800 5790 5790 5790 5782 5801 5800 5791 5789 5789 5788 5785 5780 5776 5770 5769 5769 5771 5771 5769 5773 5768 5766 5767 5766 5766 5765 5765 5764 5763 5763 5764
5807 5794 5802 5838 5856 5851 5836 5846 5855 5834 5824 5816 5806 5790 5785 5764 5784 5775 5768 5759 5768 5770 5775 5780 5781 5785 5788 5788 5781 5778 5771 5764 5760 5760 5762 5767 5770 5771 5771 5769 5768 5763 5764 5765 5764 5762 5758 5755 5754
5812 5796 5822 5838 5854 5855 5843 5840 5857 5826 5807 5815 5803 5812 5802 5783 5775 5765 5753 5745 5741 5755 5768 5753 5759 5766 5773 5776 5775 5773 5767 5757 5753 5762 5758 5766 5769 5768 5766 5767 5762 5760 5760 5758 5759 5755 5750 5747 5746
5802 5820 5825 5833 5847 5835 5829 5839 5836 5841 5823 5825 5816 5811 5794 5784 5774 5771 5769 5767 5734 5737 5732 5732 5734 5741 5764 5772 5767 5766 5759 5725 5731 5756 5759 5762 5762 5763 5761 5763 5762 5757 5759 5755 5754 5750 5742 5719 5730
5809 5815 5826 5834 5834 5833 5828 5820 5822 5830 5845 5843 5832 5803 5771 5768 5769 5770 5763 5751 5746 5734 5726 5732 5742 5733 5756 5759 5771 5765 5757 5759 5749 5750 5752 5753 5758 5757 5754 5751 5750 5751 5753 5752 5745 5743 5738 5723 5722
5820 5816 5815 5824 5822 5824 5813 5811 5814 5821 5842 5820 5794 5773 5764 5750 5750 5751 5745 5733 5738 5740 5742 5745 5748 5744 5760 5760 5752 5754 5748 5746 5757 5750 5747 5741 5740 5740 5740 5739 5741 5742 5741 5741 5737 5733 5731 5728 5719
5811 5793 5803 5811 5813 5808 5817 5793 5794 5819 5820 5786 5772 5758 5756 5740 5737 5728 5724 5719 5718 5729 5734 5732 5737 5744 5747 5747 5743 5737 5731 5732 5743 5750 5735 5732 5732 5733 5728 5725 5729 5732 5733 5729 5729 5729 5728 5725 5720
5789 5793 5775 5807 5806 5808 5797 5766 5795 5807 5807 5772 5755 5748 5744 5735 5730 5726 5714 5711 5715 5719 5718 5722 5731 5732 5733 5729 5725 5724 5723 5718 5687 5694 5731 5734 5709 5711 5714 5714 5715 5716 5719 5721 5720 5721 5721 5718 5715
5790 5773 5788 5803 5810 5802 5791 5774 5782 5798 5798 5764 5738 5732 5730 5726 5727 5718 5712 5707 5709 5709 5708 5710 5709 5720 5722 5714 5713 5716 5719 5724 5695 5698 5711 5700 5702 5705 5703 5707 5711 5710 5710 5710 5710 5710 5707 5704 5701
5781 5789 5800 5793 5800 5795 5791 5773 5772 5779 5776 5752 5731 5724 5718 5715 5711 5713 5711 5701 5697 5698 5699 5699 5700 5701 5711 5710 5708 5704 5699 5699 5692 5693 5696 5702 5700 5694 5696 5700 5703 5703 5701 5701 5699 5699 5698 5696 5693
5784 5783 5788 5800 5801 5786 5774 5754 5751 5757 5766 5749 5727 5715 5708 5705 5703 5702 5698 5700 5694 5689 5687 5692 5690 5695 5701 5692 5690 5687 5687 5687 5681 5675 5680 5678 5685 5690 5690 5688 5689 5689 5691 5688 5687 5686 5682 5681 5681
5774 5770 5773 5793 5798 5779 5769 5748 5748 5744 5737 5738 5727 5714 5704 5698 5692 5689 5689 5688 5682 5681 5682 5683 5681 5687 5684 5677 5675 5678 5681 5679 5673 5671 5675 5669 5674 5675 5676 5674 5674 5674 5673 5675 5676 5673 5668 5668 5667
5768 5763 5769 5771 5790 5789 5766 5740 5732 5731 5725 5719 5710 5701 5696 5690 5687 5683 5677 5674 5671 5668 5665 5663 5661 5666 5665 5668 5670 5677 5679 5675 5664 5662 5664 5661 5660 5661 5662 5664 5666 5665 5663 5658 5659 5660 5655 5654 5656
5753 5783 5774 5764 5757 5741 5773 5725 5727 5716 5711 5708 5704 5698 5684 5682 5675 5674 5673 5669 5666 5661 5656 5653 5653 5651 5651 5653 5657 5658 5653 5649 5646 5646 5645 5643 5646 5649 5650 5644 5647 5644 5644 5640 5638 5637 5636 5632 5632
5755 5767 5759 5759 5752 5749 5753 5741 5708 5704 5691 5693 5693 5690 5682 5677 5671 5663 5663 5663 5662 5660 5657 5653 5650 5649 5645 5642 5638 5636 5635 5634 5632 5631 5628 5631 5632 5633 5632 5630 5628 5625 5628 5626 5623 5619 5617 5614 5612
5764 5750 5751 5752 5746 5719 5746 5742 5697 5701 5699 5691 5683 5686 5673 5668 5662 5657 5657 5654 5650 5648 5643 5640 5637 5634 5630 5627 5625 5624 5621 5617 5618 5618 5619 5614 5618 5616 5614 5609 5608 5603 5604 5604 5604 5603 5601 5597 5600
5750 5734 5711 5715 5721 5713 5757 5729 5711 5713 5704 5689 5687 5672 5663 5658 5651 5647 5643 5642 5640 5634 5631 5628 5622 5618 5616 5615 5614 5608 5607 5604 5604 5605 5598 5597 5597 5595 5593 5590 5588 5583 5584 5584 5584 5588 5584 5584 5584
5734 5734 5710 5684 5699 5719 5737 5706 5695 5709 5702 5695 5679 5662 5647 5646 5644 5639 5634 5631 5628 5624 5619 5614 5609 5606 5604 5602 5597 5593 5591 5588 5589 5585 5579 5575 5573 5576 5574 5577 5573 5568 5563 5567 5575 5569 5569 5570 5569
5726 5718 5738 5710 5719 5706 5729 5689 5684 5682 5669 5661 5651 5644 5640 5640 5637 5629 5627 5625 5619 5614 5609 5603 5598 5594 5593 5590 5587 5583 5580 5577 5574 5568 5564 5564 5567 5564 5564 5559 5553 5545 5554 5557 5556 5555 5553 5555 5555
5725 5734 5700 5711 5680 5678 5715 5679 5665 5668 5661 5657 5647 5643 5638 5636 5633 5633 5625 5618 5610 5602 5594 5588 5584 5581 5577 5572 5567 5564 5561 5558 5556 5555 5555 5555 5554 5551 5546 5541 5541 5543 5543 5544 5544 5545 5546 5546 5545
5713 5710 5711 5708 5702 5676 5673 5685 5695 5681 5671 5661 5656 5653 5643 5640 5632 5624 5616 5609 5600 5589 5581 5575 5570 5567 5562 5557 5555 5554 5553 5551 5550 5549 5547 5545 5544 5542 5540 5540 5538 5537 5536 5533 5535 5538 5538 5538 5537
5712 5701 5699 5674 5670 5686 5680 5670 5692 5689 5674 5668 5653 5644 5636 5628 5621 5614 5606 5596 5583 5572 5564 5558 5555 5552 5549 5547 5545 5543 5544 5543 5543 5541 5541 5540 5539 5538 5537 5535 5533 5531 5529 5527 5527 5528 5528 5528 5529